Date String (YYYY-MM-DD hh:mm:ss) UTC,Instrument flags,absolute air pressure of the measurement (hPa),sample flow rate (lpm),inlet stack bypass flow (lpm),air temperature of the measurement (°C),ambient temperature measured by the external sensor (°C),aerosol sample conditioner tube jacket temperature (°C),OPC LED temperature (°C),internal box temperature (°C),relative humidity of the measurement (%),span deviation,mass concentration of particles derived from Lorenz-Mie calculation of OPC scattering (μg/m³),mass concentration of particles derived from Lorenz-Mie calculation of OPC scattering (μg/m³),mass concentration of particles derived from Lorenz-Mie calculation of OPC scattering (μg/m³)
DateTimeUTC,F1_M11,P_M11,Q1_M11,Q2_M11,T1_M11,T2_M11,T3_M11,T4_M11,T5_M11,U1_M11,ZSPAN_M11,X0_M11,X2_M11,X1_M11
2023-11-09 09:00:00,SystemResetWarning,0834.2,5.00,000.00,020.1,019.2,000.0,028.4,021.4,21.1,0000.0,0004.65,0003.29,0002.96
2023-11-09 09:01:00,SystemResetWarning,0834.2,4.99,000.00,020.1,019.2,000.0,028.4,021.4,21.0,0000.0,0004.58,0003.28,0002.97
2023-11-09 09:02:00,SystemResetWarning,0834.2,5.00,000.00,020.1,019.2,000.0,028.4,021.4,20.8,0000.0,0004.78,0003.31,0002.99
2023-11-09 09:03:00,SystemResetWarning,0834.2,4.99,000.00,020.1,019.2,000.0,028.4,021.4,20.8,0000.0,0004.85,0003.33,0003.03
2023-11-09 09:04:00,SystemResetWarning,0834.2,4.99,000.00,020.1,019.2,000.0,028.4,021.4,20.7,0000.0,0004.80,0003.32,0003.05
2023-11-09 09:05:00,SystemResetWarning,0834.1,5.00,000.00,020.1,019.2,000.0,028.4,021.4,20.7,0000.0,0004.68,0003.29,0003.04
2023-11-09 09:06:00,SystemResetWarning,0834.1,5.00,000.00,020.1,019.2,000.0,028.4,021.4,20.7,0000.0,0004.67,0003.29,0003.04
2023-11-09 09:07:00,SystemResetWarning,0834.1,5.01,000.00,020.1,019.2,000.0,028.4,021.4,20.8,0000.0,0004.59,0003.27,0003.04
2023-11-09 09:08:00,SystemResetWarning,0834.1,5.01,000.00,020.1,019.2,000.0,028.4,021.4,20.8,0000.0,0004.83,0003.29,0003.04
2023-11-09 09:09:00,SystemResetWarning,0834.1,4.98,000.00,020.1,019.2,000.0,028.4,021.4,20.7,0000.0,0004.82,0003.29,0003.04
2023-11-09 09:10:00,SystemResetWarning,0834.2,4.99,000.00,020.1,019.2,000.0,028.4,021.5,20.8,0000.0,0004.82,0003.30,0003.05
2023-11-09 09:11:00,SystemResetWarning,0834.1,5.01,000.00,020.1,019.2,000.0,028.4,021.4,20.7,0000.0,0004.71,0003.29,0003.06
2023-11-09 09:12:00,SystemResetWarning,0834.1,5.00,000.00,020.1,019.2,000.0,028.4,021.4,20.6,0000.0,0004.60,0003.27,0003.06
2023-11-09 09:13:00,SystemResetWarning,0834.1,5.01,000.00,020.1,019.2,000.0,028.4,021.4,20.6,0000.0,0004.44,0003.25,0003.04
2023-11-09 09:14:00,SystemResetWarning,0834.1,5.00,000.00,020.1,019.2,000.0,028.4,021.4,20.6,0000.0,0004.38,0003.25,0003.04
2023-11-09 09:15:00,SystemResetWarning,0834.1,4.99,000.00,020.1,019.2,000.0,028.4,021.5,20.7,0000.0,0004.37,0003.25,0003.05
2023-11-09 09:16:00,SystemResetWarning,0834.1,5.00,000.00,020.1,019.2,000.0,028.4,021.5,20.8,0000.0,0004.45,0003.27,0003.07
2023-11-09 09:17:00,SystemResetWarning,0834.1,5.00,000.00,020.1,019.3,000.0,028.4,021.5,20.8,0000.0,0004.47,0003.28,0003.08
2023-11-09 09:18:00,SystemResetWarning,0834.1,5.00,000.00,020.1,019.3,000.0,028.4,021.5,20.7,0000.0,0004.36,0003.29,0003.08
2023-11-09 09:19:00,SystemResetWarning,0834.1,5.01,000.00,020.1,019.3,000.0,028.4,021.6,20.5,0000.0,0004.14,0003.27,0003.08
2023-11-09 09:20:00,SystemResetWarning,0834.1,5.01,000.00,020.1,019.3,000.0,028.5,021.6,20.5,0000.0,0004.18,0003.29,0003.09
2023-11-09 09:21:00,SystemResetWarning,0834.1,5.01,000.00,020.1,019.3,000.0,028.5,021.5,20.5,0000.0,0004.14,0003.28,0003.10
2023-11-09 09:22:00,SystemResetWarning,0834.1,5.00,000.00,020.1,019.3,000.0,028.5,021.5,20.5,0000.0,0004.19,0003.29,0003.10
2023-11-09 09:23:00,SystemResetWarning,0834.1,5.00,000.00,020.1,019.3,000.0,028.5,021.5,20.4,0000.0,0004.30,0003.33,0003.12
2023-11-09 09:24:00,SystemResetWarning,0834.1,5.00,000.00,020.1,019.3,000.0,028.5,021.5,20.4,0000.0,0004.26,0003.33,0003.13
2023-11-09 09:25:00,SystemResetWarning,0834.1,5.00,000.00,020.1,019.3,000.0,028.5,021.5,20.2,0000.0,0004.29,0003.33,0003.13
2023-11-09 09:26:00,SystemResetWarning,0834.1,5.00,000.00,020.1,019.3,000.0,028.5,021.5,19.9,0000.0,0004.34,0003.35,0003.13
2023-11-09 09:27:00,SystemResetWarning,0834.1,5.00,000.00,020.1,019.3,000.0,028.5,021.5,19.8,0000.0,0004.27,0003.33,0003.13
2023-11-09 09:28:00,SystemResetWarning,0834.1,5.00,000.00,020.1,019.3,000.0,028.5,021.4,19.8,0000.0,0004.20,0003.33,0003.13
2023-11-09 09:29:00,SystemResetWarning,0834.1,5.00,000.00,020.1,019.3,000.0,028.5,021.5,19.7,0000.0,0004.22,0003.33,0003.14
2023-11-09 09:30:00,SystemResetWarning,0834.1,5.00,000.00,020.1,019.2,000.0,028.5,021.5,19.8,0000.0,0004.24,0003.33,0003.14
2023-11-09 09:31:00,SystemResetWarning,0834.1,5.00,000.00,020.1,019.2,000.0,028.5,021.5,19.8,0000.0,0004.22,0003.32,0003.13
2023-11-09 09:32:00,SystemResetWarning,0834.1,5.00,000.00,020.1,019.2,000.0,028.5,021.5,19.7,0000.0,0004.30,0003.33,0003.13
2023-11-09 09:33:00,SystemResetWarning,0834.2,5.01,000.00,020.1,019.2,000.0,028.5,021.4,19.5,0000.0,0004.29,0003.33,0003.13
2023-11-09 09:34:00,SystemResetWarning,0834.1,5.01,000.00,020.1,019.2,000.0,028.5,021.4,19.3,0000.0,0004.27,0003.32,0003.12
2023-11-09 09:35:00,SystemResetWarning,0834.1,5.00,000.00,020.1,019.2,000.0,028.5,021.4,19.2,0000.0,0004.26,0003.32,0003.11
2023-11-09 09:36:00,SystemResetWarning,0834.1,5.00,000.00,020.1,019.2,000.0,028.5,021.4,19.2,0000.0,0004.28,0003.31,0003.11
2023-11-09 09:37:00,SystemResetWarning,0834.1,5.00,000.00,020.1,019.2,000.0,028.5,021.5,19.3,0000.0,0004.36,0003.30,0003.10
2023-11-09 09:38:00,SystemResetWarning,0834.2,5.00,000.00,020.1,019.2,000.0,028.5,021.4,19.4,0000.0,0004.40,0003.31,0003.09
2023-11-09 09:39:00,SystemResetWarning,0834.1,5.00,000.00,020.1,019.2,000.0,028.5,021.4,19.5,0000.0,0004.36,0003.29,0003.06
2023-11-09 09:40:00,SystemResetWarning,0834.1,5.00,000.00,020.1,019.2,000.0,028.5,021.5,19.5,0000.0,0004.30,0003.27,0003.04
2023-11-09 09:41:00,SystemResetWarning,0834.2,5.00,000.00,020.1,019.2,000.0,028.5,021.5,19.5,0000.0,0004.24,0003.25,0003.03
2023-11-09 09:42:00,SystemResetWarning,0834.2,5.00,000.00,020.1,019.2,000.0,028.5,021.5,19.5,0000.0,0004.18,0003.24,0003.03
2023-11-09 09:43:00,SystemResetWarning,0834.2,5.01,000.00,020.1,019.2,000.0,028.5,021.5,19.6,0000.0,0004.14,0003.24,0003.05
2023-11-09 09:44:00,SystemResetWarning,0834.2,5.01,000.00,020.1,019.3,000.0,028.5,021.5,19.7,0000.0,0004.25,0003.27,0003.08
2023-11-09 09:45:00,SystemResetWarning,0834.2,5.01,000.00,020.1,019.3,000.0,028.5,021.5,19.7,0000.0,0004.23,0003.27,0003.09
2023-11-09 09:46:00,SystemResetWarning,0834.2,5.01,000.00,020.1,019.3,000.0,028.5,021.5,19.8,0000.0,0004.24,0003.28,0003.11
2023-11-09 09:47:00,SystemResetWarning,0834.2,5.00,000.00,020.1,019.3,000.0,028.5,021.5,19.7,0000.0,0004.13,0003.27,0003.12
2023-11-09 09:48:00,SystemResetWarning,0834.2,5.00,000.00,020.1,019.3,000.0,028.5,021.5,19.6,0000.0,0004.07,0003.27,0003.12
2023-11-09 09:49:00,SystemResetWarning,0834.2,5.00,000.00,020.1,019.3,000.0,028.5,021.5,19.5,0000.0,0004.11,0003.27,0003.14
2023-11-09 09:50:00,SystemResetWarning,0834.2,4.99,000.00,020.1,019.3,000.0,028.5,021.5,19.4,0000.0,0004.24,0003.29,0003.15
2023-11-09 09:51:00,SystemResetWarning,0834.2,4.99,000.00,020.1,019.3,000.0,028.5,021.5,19.5,0000.0,0004.41,0003.32,0003.16
2023-11-09 09:52:00,SystemResetWarning,0834.2,5.00,000.00,020.1,019.2,000.0,028.5,021.5,19.6,0000.0,0004.43,0003.33,0003.17
2023-11-09 09:53:00,SystemResetWarning,0834.1,5.00,000.00,020.1,019.2,000.0,028.5,021.5,19.7,0000.0,0004.50,0003.35,0003.17
2023-11-09 09:54:00,SystemResetWarning,0834.1,5.00,000.00,020.1,019.2,000.0,028.5,021.5,19.3,0000.0,0004.54,0003.37,0003.17
2023-11-09 09:55:00,SystemResetWarning,0834.1,5.00,000.00,020.1,019.3,000.0,028.5,021.5,18.8,0000.0,0004.43,0003.34,0003.16
2023-11-09 09:56:00,SystemResetWarning,0834.1,5.00,000.00,020.1,019.3,000.0,028.5,021.5,18.5,0000.0,0004.48,0003.34,0003.15
2023-11-09 09:57:00,SystemResetWarning,0834.1,5.00,000.00,020.1,019.3,000.0,028.5,021.6,18.4,0000.0,0004.48,0003.33,0003.13
2023-11-09 09:58:00,SystemResetWarning,0834.1,5.00,000.00,020.1,019.3,000.0,028.5,021.6,18.6,0000.0,0004.45,0003.31,0003.11
2023-11-09 09:59:00,SystemResetWarning,0834.2,5.00,000.00,020.1,019.3,000.0,028.5,021.6,18.8,0000.0,0004.53,0003.28,0003.08
